Regional Weather Roundup
Issued by NWS Newport/Morehead, NC

Current Version | Previous Version | Text Only | Print | Product List | Glossary Off
Versions: 1 2 3 4 5 6 7 8 9 10 11 12 13 14 15 16 17 18 19 20 21 22 23 24 25 26 27 28 29 30 31 32 33 34 35 36 37 38 39 40 41 42 43 44 45 46 47 48 49 50
897 ASUS42 KMHX 242113 RWRMHX WEATHER ROUNDUP FOR EASTERN NORTH CAROLINA NATIONAL WEATHER SERVICE NEWPORT/MOREHEAD CITY NC 400 PM EST FRI FEB 24 2017 NOTE: "FAIR" INDICATES FEW OR NO CLOUDS BELOW 12,000 FEET WITH NO SIGNIFICANT WEATHER AND/OR OBSTRUCTIONS TO VISIBILITY NCZ015>017-031-032-045>047-102-103-242200- NORTH COAST CITY SKY/WX TMP DP RH WIND PRES REMARKS EDENTON MOSUNNY 74 60 62 E10 29.87S ELIZABETH CITY MOSUNNY 72 60 66 SE13 29.88S KITTY HAWK NOT AVBL MANTEO CLOUDY 72 60 65 S9 29.89F $$ NCZ045>047-081-094-103-104-242200- CENTRAL COAST CITY SKY/WX TMP DP RH WIND PRES REMARKS FRISCO SUNNY 73 59 61 E10 29.87S HAZE $$ NCZ095-097-098-100-101-242200- SOUTHERN COAST CITY SKY/WX TMP DP RH WIND PRES REMARKS BEAUFORT MOSUNNY 74 60 61 E10G17 29.86S CEDAR ISLAND NOT AVBL JACKSONVILLE MOSUNNY 76 60 57 SE9 29.84S PINEY ISLAND PTCLDY N/A N/A N/A NE7 29.87S WILMINGTON SUNNY 73 61 65 E12 29.85S $$ NCZ011>013-027>030-043-044-078>080-089-090>093-098-242200- COASTAL PLAIN CITY SKY/WX TMP DP RH WIND PRES REMARKS AHOSKIE N/A 76 56 50 SE5 29.86S CLINTON SUNNY 79 58 49 CALM 29.84F ELIZABETHTOWN SUNNY 79 54 41 CALM 29.83S GOLDSBORO MOSUNNY 78 53 42 E3 29.82F GREENVILLE MOSUNNY 77 55 47 CALM 29.88S HAVELOCK PTSUNNY 70 64 81 E7 29.82F KENANSVILLE CLOUDY 79 55 44 SW5 29.84S KINSTON MOSUNNY 79 54 41 CALM 29.85S NEW BERN SUNNY 72 61 68 SE12 29.86S RICHLANDS MOSUNNY 76 58 53 SE8 29.85S ROCKY MOUNT SUNNY 77 57 50 VRB6 29.84F WASHINGTON SUNNY 75 58 55 SE10 29.85F WHITEVILLE MOSUNNY 77 55 47 SE3 29.82F $$ AMZ130-135-150-152-154-156-158-170-250-252-270-ANZ085-086-088-633-658-670-242200- MARINE OBSERVATIONS STATION/POSITION TIME TEMP WIND PRES WAVE SWELL AIR SEA DIR/SP/G HT/PER HT/PER (UTC) (F) (DEG/KT/KT) (MB) (FT/S) (FT/S) CHESAPEAKE LIGHT NOT AVBL 64 E VA BEACH 2050 60 57 120/ 4/ 6 1012.5 6/11 5/11 DUCK 2048 63 50 130/ 6/ 6 1011.6 2 E DUCK 2100 55 N/A 4/13 2/13 OREGON INLET 2042 69 55 110/ 5/ 8 1011.9 13E OREGON INLT NOT AVBL HATTERAS CG 2048 70 62 100/ 7/ 9 1011.2 DIAMOND BUOY 2050 72 76 110/ 14/ 17 1010.9 7/ 9 7/ 9 CAPE LOOKOUT 2100 68 70/ 5/ 6 1010.8 BEAUFORT LAB 2048 71 60 120/ 10/ 12 1010.2 30 SE NEW RVR IN 2008 68 40/ 6/ 10 1010.9 30 SE NEW RVR IN 2043 71 N/A 7/ 8 3/11 27 SE WRIGHTSVLE 2008 68 67 30/ 10/ 16 1009.8 5 SE WRIGHTSVLE 2008 62 59 40/ 6/ 8 1010.8 225 S CAPE HAT 2050 70 70 60/ 12/ 14 1006.5 11/11 10/11 41 SE CHARLESTON 2050 69 71 20/ 12/ 14 1009.5 8/11 7/11 $$

USA.gov is the U.S. government's official web portal to all federal, state and local government web resources and services.